カタログに戻る

ION SCV-016

運用中科学PO
NORAD 62628·PAYLOAD·🇮🇹 Italy

打ち上げ Jan 14, 2025 から Vandenberg Space Force Base

Loading…

次のパス (今後24時間)

TLE

最新Source: Space-Track

元期: Sep 14, 2026, 01:58 UTC

1 62628U 25009V   26257.08250236  .00019116  00000-0  39695-3 0  9991
2 62628  97.4222 285.5947 0575173 184.4269 175.1719 14.54201569 88457

AllMySatでION SCV-016をリアルタイム追跡

Download on the App Store